User: anonymous   Login
Location: Northam
(31.6525°S, 116.6655°E)
Time: 15:05:08
(UTC+08:00)
Language:

UNISAT 6 - Orbit

View from above orbital plane
View from above orbital plane
View from above satellite
View from above satellite

Ground track
Ground track

The orbit data is extracted from the following two-line orbital elements,

1 40012U 14033C   21209.83266205  .00000284  00000-0  48854-4 0  9991
2 40012  97.6740  50.0732 0059261 125.5938 235.0813 14.74344796382290
Epoch (UTC): 28 July 2021 19:59:02
Eccentricity: 0.0059261
inclination: 97.6740°
perigee height: 605 km
apogee height: 689 km
right ascension of ascending node: 50.0732°
argument of perigee: 125.5938°
revolutions per day: 14.74344796
mean anomaly at epoch: 235.0813°
orbit number at epoch: 38229

The dashed part of the orbit path shows where the satellite is in the earth's shadow,  

DLR